RH
7 10 10 20 33 36 33 36 48 16 10 7 7 6 15 31 37 42 54 70 70 91 30 38 43 50 58 73 100 100 100 100 100 100 73 99 99 100 51 15 14 24 29 26 14 14 33
6 11 11 19 35 38 35 37 51 22 12 8 8 8 17 38 41 52 70 72 73 91 47 31 34 35 47 46 83 100 100 99 99 100 91 86 74 82 46 19 13 20 30 34 22 14 24
7 11 11 19 35 41 36 38 52 36 15 9 7 10 21 38 42 49 65 84 52 44 40 24 31 40 46 40 100 100 98 98 100 100 100 99 44 70 45 20 16 18 29 37 26 16 21
10 12 12 14 38 43 39 37 54 52 18 10 8 11 24 37 46 46 64 56 34 21 20 21 32 32 34 60 97 95 96 96 100 95 90 98 69 52 38 27 19 24 30 37 27 18 26
15 15 12 11 40 42 43 38 48 58 31 12 8 12 23 35 41 43 51 35 26 23 29 36 33 38 41 69 79 94 94 88 95 90 96 100 96 50 45 38 35 26 27 34 26 19 34
18 17 13 10 31 42 46 38 42 62 51 16 9 12 23 34 46 49 55 49 28 33 48 64 51 30 32 58 71 100 75 100 94 83 100 100 87 62 50 47 31 25 31 34 26 29 43
22 21 13 9 19 45 46 38 39 58 61 28 10 10 19 33 52 49 60 80 53 50 57 74 36 46 88 68 73 94 67 68 100 100 100 100 80 62 55 47 30 33 35 30 28 45 58
32 28 14 10 17 50 44 37 38 54 67 46 11 10 16 32 47 56 46 64 63 64 76 92 95 84 66 63 80 99 100 100 75 88 99 96 70 53 46 40 37 36 32 33 41 49 56
34 34 20 12 18 49 43 36 34 50 68 61 19 11 14 28 39 57 47 46 69 70 80 92 84 86 90 84 97 100 97 100 87 96 96 78 49 39 36 33 31 31 31 35 36 48 44
37 35 23 13 19 44 43 40 32 43 59 68 42 15 12 21 30 46 50 41 44 58 83 84 75 87 88 91 96 99 99 100 88 86 70 42 38 33 32 32 30 28 29 30 33 32 26
34 32 27 12 19 33 45 44 34 34 48 62 65 33 12 14 29 32 54 46 42 48 69 82 82 76 78 74 69 90 81 83 85 66 40 40 38 33 32 32 30 30 27 25 24 21 18
38 33 23 11 16 20 46 48 40 32 37 52 69 59 20 12 19 31 36 58 44 49 59 78 92 85 82 73 70 68 71 58 55 45 44 43 41 38 36 34 33 32 29 26 21 18 15
38 29 14 9 13 18 39 52 40 35 33 38 60 64 53 18 12 26 33 43 50 44 52 58 59 58 56 48 46 44 43 45 43 42 41 42 40 37 36 35 32 30 28 25 22 18 14
31 20 13 11 17 18 20 49 43 35 33 32 38 44 58 55 19 14 23 31 50 50 46 46 45 43 43 43 42 40 39 37 37 36 37 37 34 32 30 30 28 27 25 23 21 19 17
28 17 15 20 33 39 22 34 52 35 36 34 33 32 32 52 58 26 15 16 31 52 53 46 46 46 41 37 37 41 41 39 39 38 35 32 28 24 24 21 20 20 18 18 16 15 15
24 16 18 24 38 54 47 23 57 39 37 38 36 34 32 33 40 64 35 15 14 33 35 52 49 39 40 32 34 34 37 41 41 42 38 32 30 24 20 17 17 16 16 16 15 14 14
16 16 21 42 62 63 60 52 38 47 49 47 40 41 36 34 31 33 50 61 24 14 16 29 35 39 43 42 37 31 30 31 39 30 33 34 27 23 20 18 18 17 16 15 15 15 14
15 17 29 60 74 62 61 55 50 51 42 45 50 47 44 38 38 36 31 30 33 66 49 13 13 16 26 30 29 31 37 34 26 39 39 34 27 24 23 21 21 22 22 22 28 32 28
15 29 52 74 77 68 65 59 51 52 47 42 47 45 42 35 39 42 37 35 32 33 37 53 72 55 14 13 12 14 19 24 27 26 26 28 31 32 28 27 26 29 31 34 32 27 20
24 34 55 74 79 68 67 63 54 49 53 51 48 50 49 40 38 41 41 40 41 40 37 37 38 38 50 74 74 54 29 13 10 10 10 10 12 15 16 16 18 18 19 18 16 14 11
32 45 55 70 82 72 67 70 60 48 56 54 60 50 48 51 44 38 35 36 35 35 36 39 39 38 37 36 35 34 35 47 62 64 56 39 15 9 8 7 7 7 7 7 7 7 5
31 46 61 68 77 76 67 72 65 57 56 62 55 59 51 52 49 42 41 37 35 31 29 32 30 29 31 36 36 32 30 32 27 28 28 28 32 51 62 57 53 45 36 36 41 51 55
34 41 58 65 68 71 73 68 67 60 57 55 55 53 53 55 55 52 44 40 36 34 34 31 28 29 27 26 27 29 31 29 34 30 28 24 21 19 21 24 26 28 35 35 32 32 33
74 52 59 68 66 66 71 70 65 58 52 54 51 52 53 56 62 58 49 43 39 34 33 33 32 31 30 32 34 33 26 25 25 22 23 24 20 16 17 19 16 20 24 27 27 29 26
100 92 77 77 73 73 76 77 66 56 56 53 52 50 55 59 58 55 46 39 40 39 40 37 35 35 33 32 32 32 32 30 36 38 35 27 22 19 18 18 17 22 25 28 26 28 31
100 98 92 84 75 80 73 82 76 69 58 55 47 47 44 47 48 47 45 44 44 41 39 38 40 38 36 35 37 34 31 29 30 35 41 47 45 36 29 23 15 16 17 19 21 21 23
97 100 100 96 84 82 79 80 83 77 71 64 60 53 46 42 44 44 45 46 48 48 48 49 49 49 48 47 44 43 39 36 31 31 33 37 39 45 44 34 30 41 31 26 25 20 20
95 98 100 97 88 86 87 87 85 88 89 81 69 69 67 61 54 54 57 59 59 58 58 60 65 66 58 58 54 52 44 44 44 39 37 37 40 37 36 39 38 34 36 35 29 25 21
98 100 100 99 94 85 86 84 87 88 86 93 93 90 86 82 76 70 70 71 74 73 76 82 84 80 74 71 63 58 56 53 53 48 51 47 48 45 44 44 45 43 39 34 30 29 30
Wind_Speed
33 38 40 43 39 39 36 30 30 33 40 45 43 44 49 46 45 41 35 29 23 9 2 6 7 8 7 7 11 29 27 25 21 28 32 31 32 44 56 65 67 69 69 63 55 49 43
32 36 39 43 40 40 36 32 30 33 40 45 43 43 47 45 43 39 33 29 27 17 5 5 6 8 5 5 5 7 6 9 17 26 38 34 32 43 53 60 63 65 61 55 49 46 41
30 34 37 42 39 40 38 34 31 32 38 44 44 42 45 43 42 41 36 32 27 19 9 5 9 9 7 6 11 10 16 12 18 29 41 35 35 42 50 56 58 58 56 50 44 42 42
29 32 36 41 40 41 39 34 32 32 36 43 45 40 42 42 44 42 39 34 26 19 13 11 13 14 14 11 7 11 13 14 26 30 29 34 42 45 49 53 53 52 52 48 45 42 41
26 30 34 38 40 41 40 37 32 31 34 40 44 40 41 41 43 41 38 36 24 16 20 18 14 16 14 17 12 11 10 18 16 25 24 33 40 49 51 51 50 51 51 48 42 42 40
24 28 32 35 40 40 40 37 34 31 33 38 42 39 38 39 41 41 38 34 29 24 24 25 21 21 15 14 10 13 15 12 13 18 28 31 42 48 50 49 49 49 46 44 40 40 40
23 26 30 33 38 39 40 37 35 31 31 34 39 38 35 37 37 40 39 33 32 28 26 28 26 19 16 17 13 21 23 15 23 20 23 30 41 44 45 45 47 45 37 36 38 36 36
23 24 28 29 34 37 38 36 34 32 30 32 37 39 33 34 35 36 38 33 29 30 24 24 22 18 16 19 18 34 29 16 17 17 25 37 36 39 42 45 42 39 34 34 33 34 34
21 21 25 27 31 34 36 34 32 31 29 29 33 37 32 32 33 34 34 35 28 28 27 27 19 21 24 26 27 28 22 18 19 24 29 33 35 39 43 44 39 36 32 31 31 32 32
20 21 23 25 29 32 32 32 29 29 28 27 29 33 33 29 30 33 33 32 32 31 32 29 30 27 26 30 27 25 20 16 23 27 31 32 32 39 40 37 37 31 30 29 29 29 29
20 19 22 22 27 30 30 29 27 27 27 27 26 29 33 28 26 29 31 30 30 31 34 30 29 31 32 32 28 20 26 29 31 32 29 30 31 34 34 32 32 27 24 24 24 24 25
19 17 19 20 23 26 28 29 27 24 25 25 24 25 28 31 25 25 28 28 27 32 35 31 29 29 32 34 36 36 35 34 32 32 33 32 34 34 32 30 28 25 21 20 19 19 19
18 18 18 19 20 22 24 27 25 22 22 23 23 24 24 28 29 22 25 27 25 29 33 30 27 30 31 31 33 35 36 34 34 34 34 35 36 34 31 29 25 22 19 17 15 14 13
19 18 18 17 21 20 20 22 22 21 18 20 22 24 25 24 25 27 23 23 24 27 31 32 26 23 22 20 24 28 34 35 36 35 35 35 34 32 29 27 23 19 16 13 11 11 12
20 19 18 17 17 19 18 18 17 17 15 16 20 22 24 23 23 24 27 20 21 24 25 27 26 21 18 16 18 14 26 30 31 32 32 32 33 32 30 26 20 17 14 13 11 9 11
22 19 18 17 18 18 17 15 15 13 13 15 17 20 20 21 24 23 24 21 22 20 20 19 20 20 17 14 14 14 16 15 21 24 26 28 31 30 28 23 19 13 13 13 12 12 14
23 21 19 17 18 18 17 15 12 7 9 12 14 17 20 20 23 25 23 20 21 22 19 16 15 15 16 14 13 11 7 9 7 10 11 16 21 24 26 25 24 20 18 16 17 19 22
23 22 22 21 19 16 16 15 13 6 6 9 11 10 13 15 18 19 20 20 23 21 18 17 17 14 12 11 9 10 11 7 7 2 1 6 13 15 18 21 20 21 24 25 27 27 28
24 23 23 25 22 20 16 16 14 13 9 9 8 8 9 11 11 11 12 15 17 18 18 18 16 14 13 13 11 8 5 5 6 5 4 6 8 11 15 16 19 21 23 25 26 27 26
25 25 26 27 25 22 19 15 14 14 15 14 10 8 8 9 8 10 10 13 14 14 14 15 15 16 14 13 11 9 7 5 3 2 4 7 9 11 13 15 18 22 24 26 28 28 31
29 29 30 29 28 24 22 18 14 14 17 19 13 11 12 9 7 9 11 11 13 14 13 11 10 10 11 9 9 9 9 9 8 7 6 7 10 11 12 14 17 20 22 25 25 27 30
34 34 32 31 28 26 22 21 17 16 16 20 18 14 15 13 12 9 8 9 7 8 11 13 14 14 11 7 6 5 4 2 5 9 11 14 15 16 19 22 23 21 23 27 27 28 31
40 38 35 32 30 27 25 22 21 18 20 20 20 21 21 20 17 14 15 12 11 11 12 12 13 14 14 14 12 10 11 10 9 9 10 11 15 19 19 26 29 27 27 30 31 32 35
44 42 39 34 32 30 27 25 24 22 17 20 23 24 25 26 24 21 18 16 16 16 17 18 18 19 21 21 22 23 19 18 20 19 19 21 22 24 27 27 29 28 29 31 35 38 41
47 46 43 39 36 35 32 30 27 26 26 21 21 25 27 28 28 27 26 25 24 24 24 24 24 24 26 28 29 28 30 32 26 25 27 30 33 34 34 35 34 34 36 34 36 41 43
46 46 45 44 42 39 36 34 33 31 29 29 27 26 28 29 29 31 31 31 31 31 31 31 31 32 34 35 37 37 37 36 40 42 38 34 35 37 38 43 45 47 48 48 48 48 47
46 45 45 43 45 42 40 40 38 37 36 35 34 34 35 36 35 35 35 36 37 38 37 37 38 39 41 41 41 41 41 41 41 42 43 44 45 44 44 48 48 45 49 51 53 58 60
50 49 47 46 45 45 42 43 46 44 42 40 41 40 40 40 41 41 41 40 41 44 45 45 45 44 46 45 46 46 47 45 45 44 45 46 48 50 54 56 56 56 57 57 59 62 64
55 54 51 50 51 51 49 48 49 49 50 50 48 48 47 47 47 48 47 48 48 49 51 51 50 50 50 48 48 50 51 52 50 51 50 52 53 55 58 59 60 64 66 69 70 66 66
Wind_Direction
6 7 3 6 9 11 11 10 8 3 5 6 4 5 3 1 3 7 12 3 0 351 109 81 62 58 46 87 149 165 176 160 165 171 188 187 180 180 182 194 196 201 207 211 212 212 210
5 5 1 4 9 11 12 10 9 6 6 8 6 6 6 5 5 7 13 11 0 7 124 97 67 43 48 86 154 140 178 177 161 170 178 180 179 179 179 189 195 200 204 208 209 208 207
2 3 0 4 7 10 12 11 10 8 8 9 8 9 9 8 11 13 14 12 19 45 110 80 54 49 81 101 103 118 149 158 148 135 174 173 173 176 176 183 190 196 200 203 204 204 205
360 360 359 4 4 10 11 12 12 10 10 12 10 11 13 10 12 21 23 23 39 59 69 70 72 80 81 82 92 77 129 143 128 138 151 176 166 172 177 179 185 191 196 201 199 199 201
359 357 357 2 4 7 11 12 13 11 12 14 13 13 16 14 15 26 31 30 51 71 56 56 84 84 82 97 106 85 110 147 153 143 159 168 171 169 174 176 180 188 196 198 198 197 199
357 354 355 359 2 5 10 14 13 14 13 15 16 17 19 18 18 23 33 40 50 54 53 53 81 90 91 83 110 85 142 115 148 161 164 167 169 168 172 173 179 184 192 195 195 196 198
350 350 352 357 359 3 8 11 14 14 15 15 19 19 21 23 22 26 31 40 44 48 63 63 91 97 67 90 95 101 120 138 136 159 162 164 164 168 166 171 174 178 179 187 192 192 198
342 347 349 358 358 2 7 10 13 15 17 17 20 20 23 28 28 31 34 41 53 59 55 48 61 72 78 101 86 111 88 134 141 152 168 158 161 162 163 161 157 164 170 180 189 193 199
342 346 347 356 360 3 7 8 12 15 19 18 20 23 24 31 35 37 41 43 50 57 57 58 61 74 87 97 107 120 115 98 123 136 140 148 156 158 157 150 151 158 167 179 189 194 203
339 342 344 353 358 4 7 7 9 14 21 22 23 24 28 32 39 40 46 51 54 60 61 72 71 78 85 95 109 118 94 126 136 135 136 142 152 154 150 144 147 154 167 177 187 197 207
333 337 339 349 355 3 4 7 6 11 20 26 26 24 29 32 39 44 47 52 59 63 71 77 76 79 87 98 103 106 108 116 121 123 131 134 145 139 137 139 137 147 163 175 188 197 206
328 329 334 341 352 357 2 3 5 8 17 24 30 31 29 34 36 47 51 53 64 69 74 78 82 89 93 94 102 102 106 109 115 120 124 132 131 126 131 131 135 144 156 169 183 193 205
321 323 329 335 342 351 357 0 4 4 14 23 29 38 34 37 39 43 52 55 64 75 85 84 88 97 104 109 110 110 109 110 118 122 126 130 126 125 125 127 132 142 154 162 168 187 197
314 316 323 329 332 341 348 356 1 2 12 21 28 42 40 40 39 49 54 54 65 80 90 96 89 89 89 100 111 118 121 117 118 123 127 127 125 122 123 123 127 137 151 164 169 188 195
308 310 315 319 327 332 338 346 360 1 8 18 28 36 44 42 42 45 53 54 66 77 92 97 97 86 81 88 104 113 138 136 134 134 135 133 130 126 126 122 131 138 153 160 168 179 191
299 301 306 312 320 328 327 335 349 4 8 26 25 31 34 40 47 45 51 52 63 72 81 89 101 108 94 98 92 118 132 138 151 155 152 151 149 142 139 136 142 158 161 187 198 210 214
293 295 300 308 314 318 322 318 325 351 359 11 20 28 28 36 45 49 47 44 58 69 75 81 89 100 107 106 107 112 122 137 128 162 156 158 166 162 163 171 173 182 193 208 223 233 235
287 292 298 304 308 311 317 312 300 293 295 334 2 14 15 24 41 51 58 59 59 56 61 73 82 92 99 102 107 116 119 130 178 62 141 161 185 193 196 200 209 218 226 229 239 244 249
282 284 292 298 303 304 306 306 297 282 265 278 316 350 10 9 22 31 49 65 72 72 70 63 63 71 78 85 94 103 100 131 160 182 197 234 236 231 228 231 233 241 246 251 256 260 268
274 280 288 292 295 298 299 296 294 279 262 266 267 291 313 327 2 19 21 30 42 54 64 69 67 61 54 52 52 55 67 85 100 172 209 228 245 247 252 257 260 258 257 259 262 266 267
271 276 281 285 289 292 291 292 280 274 262 258 269 272 281 290 309 342 355 360 8 13 17 34 48 62 69 78 60 40 18 5 3 348 322 294 279 267 256 256 257 257 260 263 267 269 271
268 273 276 278 280 285 284 286 274 265 264 263 265 264 274 276 286 292 304 321 333 345 347 347 353 360 8 15 14 14 26 13 327 321 319 312 305 295 297 292 283 274 278 278 280 279 281
266 269 274 273 273 276 280 276 274 267 269 265 262 268 270 271 271 274 280 284 298 315 320 319 321 321 327 326 326 319 316 310 300 291 285 286 291 293 291 284 281 281 280 282 280 280 279
266 266 267 269 267 268 270 269 270 268 265 271 263 261 263 267 272 279 277 279 284 292 299 302 302 303 305 311 312 310 300 298 298 297 296 294 282 282 287 286 282 280 272 267 268 272 273
262 261 262 264 267 267 266 265 263 265 266 260 260 259 261 262 268 274 276 278 281 284 288 290 293 293 295 295 294 297 297 297 288 287 292 290 290 288 287 287 283 286 288 287 277 272 272
253 257 257 260 263 264 264 264 260 260 261 261 258 255 257 263 267 270 273 277 282 281 283 285 290 293 295 296 295 297 296 295 295 299 299 291 287 285 287 289 290 292 294 294 289 284 282
250 256 259 260 261 261 261 263 260 258 258 260 261 260 262 263 264 267 270 274 276 278 281 284 287 288 287 286 287 288 288 288 290 291 292 293 291 290 289 285 283 289 287 287 286 286 287
249 253 257 260 260 259 259 262 263 263 262 261 261 264 264 265 267 269 272 274 277 279 280 282 284 285 286 289 291 291 289 287 287 286 287 288 288 290 290 291 292 291 290 285 283 283 284
254 253 253 254 259 260 260 261 264 265 265 266 264 265 265 265 267 268 269 272 273 274 278 281 283 285 287 287 287 289 291 291 291 291 291 290 290 289 290 290 292 291 289 287 285 284 285